Sioux Falls, SD

1:14 PM CDT on August 17, 2017 (GMT -0500)
Foss

Weather History for KFSD - August, 2012

Change the Weather History Date:

Monday, August 6, 2012

  Actual Average Record
Temperature  
Mean Temperature 82 °F 72 °F  
Max Temperature 98 °F 83 °F 99 °F (1969)
Min Temperature 65 °F 61 °F 46 °F (1902)
Degree Days  
Heating Degree Days 0 0  
Month to date heating degree days 0 0  
Since 1 June heating degree days 21 59  
Since 1 July heating degree days 0 8  
Cooling Degree Days 17 8  
Month to date cooling degree days 75 48  
Year to date cooling degree days 916 475  
Since 1 June cooling degree days 830 439  
Growing Degree Days 31 (Base 50)    
Moisture  
Dew Point 58 °F    
Average Humidity 52    
Maximum Humidity 79    
Minimum Humidity 25    
Precipitation  
Precipitation 0.00 in 0.11 in 1.96 in (1928)
Month to date precipitation 0.56 0.62  
Year to date precipitation 12.49 16.96  
Snow  
Snow 0.00 in 0.00 in 0.00 in ()
Month to date snowfall 0.0 0.0  
Since 1 June snowfall 0.0 0.0  
Since 1 July snowfall 0.0 0.0  
Snow Depth 0.00 in    
Sea Level Pressure  
Sea Level Pressure 30.00 in    
Wind  
Wind Speed 9 mph (SSE)    
Max Wind Speed 17 mph    
Max Gust Speed 21 mph    
Visibility 10 miles    
Events      
T = Trace of Precipitation, MM = Missing Value Source: NWS Daily Summary

Daily Weather History Graph

Daily Weather History Graph

Search for Another Location

Airport or City:

Trip Planner

Search our weather history database for the weather conditions in past years. The results will help you decide how hot, cold, wet, or windy it might be!

Date:

Astronomy

Aug. 06, 2012 Rise Set
Actual Time 6:22 AM CDT 8:42 PM CDT
Civil Twilight 5:50 AM CDT 9:14 PM CDT
Nautical Twilight 5:10 AM CDT 9:53 PM CDT
Astronomical Twilight 4:26 AM CDT 10:37 PM CDT
Moon 10:39 PM CDT (8/6) 11:24 AM CDT (8/6)
Length of Visible Light 15h 24m
Length of Day
14h 20m
Waning Gibbous, 78% of the Moon is Illuminated
Aug 6
Waning Gibbous
Aug 9
Last Quarter
Aug 17
New
Aug 24
First Quarter
Aug 31
Full

Hourly Weather History & Observations

Time (CDT) Temp. Heat Index Dew Point Humidity Pressure Visibility Wind Dir Wind Speed Gust Speed Precip Events Conditions
12:56 AM 66.9 °F - 54.0 °F 63% 30.12 in 10.0 mi SSE 6.9 mph - N/A   Clear
1:56 AM 66.0 °F - 54.0 °F 65% 30.12 in 10.0 mi SSE 10.4 mph - N/A   Clear
2:56 AM 66.0 °F - 53.1 °F 63% 30.11 in 10.0 mi SSE 10.4 mph - N/A   Clear
3:56 AM 64.9 °F - 53.1 °F 65% 30.11 in 10.0 mi South 8.1 mph - N/A   Clear
4:56 AM 66.0 °F - 52.0 °F 60% 30.09 in 10.0 mi SSE 9.2 mph - N/A   Clear
5:56 AM 64.9 °F - 52.0 °F 63% 30.07 in 10.0 mi SSE 9.2 mph - N/A   Clear
6:56 AM 64.9 °F - 53.1 °F 65% 30.07 in 10.0 mi SSE 10.4 mph - N/A   Clear
7:56 AM 66.9 °F - 54.0 °F 63% 30.06 in 10.0 mi SSE 10.4 mph 17.3 mph N/A   Clear
8:56 AM 72.0 °F - 55.0 °F 55% 30.06 in 10.0 mi South 10.4 mph - N/A   Clear
9:56 AM 75.9 °F - 55.9 °F 50% 30.04 in 10.0 mi South 10.4 mph - N/A   Clear
10:56 AM 80.1 °F 80.2 °F 55.9 °F 43% 30.03 in 10.0 mi South 13.8 mph 17.3 mph N/A   Clear
11:56 AM 82.9 °F 82.4 °F 57.0 °F 41% 30.01 in 10.0 mi South 12.7 mph 18.4 mph N/A   Clear
12:56 PM 84.9 °F 83.9 °F 57.0 °F 38% 29.99 in 10.0 mi SSW 8.1 mph 19.6 mph N/A   Clear
1:56 PM 89.1 °F 88.2 °F 59.0 °F 36% 29.96 in 10.0 mi SSW 9.2 mph 17.3 mph N/A   Clear
2:56 PM 91.0 °F 90.0 °F 57.9 °F 33% 29.95 in 10.0 mi West 5.8 mph - N/A   Clear
3:56 PM 93.9 °F 92.6 °F 57.0 °F 29% 29.92 in 10.0 mi Calm Calm - N/A   Clear
4:56 PM 96.1 °F 94.5 °F 55.9 °F 26% 29.90 in 10.0 mi South 8.1 mph - N/A   Clear
5:56 PM 96.1 °F 94.5 °F 55.9 °F 26% 29.89 in 10.0 mi Variable 6.9 mph - N/A   Partly Cloudy
6:26 PM 91.4 °F 93.2 °F 64.4 °F 41% 29.93 in 10.0 mi NNE 15.0 mph 20.7 mph N/A   Clear
6:56 PM 91.0 °F 93.0 °F 64.9 °F 42% 29.90 in 10.0 mi NE 15.0 mph - N/A   Partly Cloudy
7:56 PM 87.1 °F 89.2 °F 66.0 °F 49% 29.90 in 10.0 mi ENE 10.4 mph - N/A   Partly Cloudy
8:56 PM 82.9 °F 85.0 °F 66.0 °F 56% 29.91 in 10.0 mi ENE 8.1 mph - N/A   Clear
9:56 PM 80.1 °F 82.3 °F 66.9 °F 64% 29.93 in 10.0 mi NE 4.6 mph - N/A   Clear
10:56 PM 75.9 °F - 66.9 °F 74% 29.94 in 10.0 mi North 3.5 mph - N/A   Clear
11:56 PM 73.9 °F - 66.9 °F 79% 29.94 in 10.0 mi NNE 3.5 mph - N/A   Clear